KGAIKBLM

Guest
Details From KGAI - MONTGOMERY CO AIRPARK
To KBLM - MONMOUTH EXECUTIVE
Flight Number -
Tags generated
Created
Modified
Stats Distance 154 nm / 285 km
Max Altitude 8,900 ft / 2,713 m
Waypoints 3
Social Downloads 1
Likes 0
Share VATSIM

Download

Looking for another format? Having issues loading an existing format? Contact us
Advertisement - Login to hide

Notes

Basic altitude profile: - Ascent Rate: 1800ft/min - Ascent Speed: 250kts - Cruise Altitude: 35000ft - Cruise Speed: 420kts - Descent Rate: 1600ft/min - Descent Speed: 250kts Options: - Use NATs: yes - Use PACOTS: yes - Use low airways: no - Use high airways: no

Route

KGAI 4000N07500W KBLM

ID Type Via Altitude Latitude Longitude Leg Dist Tot Dist Heading (true) Name
O KGAI APT - 0 ft / 0 m 39.16829˚ -77.16597˚ - 0 nm - MONTGOMERY CO AIRPARK
4000N07500W LATLON - 8,900 ft / 2,713 m 40.00000˚ -75.00000˚ 112 nm 112 nm 63° / 64° -
O KBLM APT - 0 ft / 0 m 40.18656˚ -74.12403˚ 41 nm 153 nm 74° / 75° MONMOUTH EXECUTIVE

Altitude Profile

Advertisement - Login to hide

KGAI

Details ICAO KGAI (GAI)
Name MONTGOMERY CO AIRPARK
Region United States
Timezone America/New_York (UTC-5.0)
Stats Elevation 539 ft / 164 m (AMSL)
Location 39.168286° -77.165966°
Runways 1
Magnetic Variation 10.813° W

METAR

KGAI 180456Z AUTO 13004KT 10SM -RA OVC044 04/02 A3015 RMK AO2 RAE0359B51 SLP242 P0000 T00440017 401061039

Decode

TAF

Not found

Departure Runways

ID Width Length Bearing (true) Bearing (mag) Surface Threshold Offset Overrun Length
14 75 ft / 23 m 4,233 ft / 1,290 m 127.52° 138.33° Asphalt 0 ft / 0 m 0 ft / 0 m
32 75 ft / 23 m 4,233 ft / 1,290 m 307.53° 318.34° Asphalt 0 ft / 0 m 0 ft / 0 m

KBLM

Details ICAO KBLM
Name MONMOUTH EXECUTIVE
Region United States
Timezone America/New_York (UTC-5.0)
Stats Elevation 159 ft / 48 m (AMSL)
Location 40.186559° -74.124027°
Runways 2
Magnetic Variation 12.715° W

METAR

KBLM 180456Z AUTO 10005KT 10SM OVC012 05/03 A3018 RMK AO2 SLP226 T00500028 400501022

Decode

TAF

Not found

Destination Runways

ID Width Length Bearing (true) Bearing (mag) Surface Threshold Offset Overrun Length
03 49 ft / 15 m 3,711 ft / 1,131 m 21.64° 34.35° Asphalt 0 ft / 0 m 0 ft / 0 m
14 79 ft / 24 m 7,298 ft / 2,224 m 132.59° 145.30° Asphalt 0 ft / 0 m 0 ft / 0 m
21 49 ft / 15 m 3,711 ft / 1,131 m 201.64° 214.35° Asphalt 0 ft / 0 m 0 ft / 0 m
32 79 ft / 24 m 7,298 ft / 2,224 m 312.60° 325.31° Asphalt 0 ft / 0 m 0 ft / 0 m

Approach Navaids

Runway Type Ident Frequency Range Bearing (true) Bearing (mag) Slope Elevation
14 Localiser IBLM 109.75 MHz 18 nm / 33 km 132.59° 145.31° - 159 ft / 48 m (AMSL)
14 DME IBLM 109.75 MHz 18 nm / 33 km - - - 159 ft / 48 m (AMSL)

Popular Alternatives